FENGYUN 1C DEB, 29770

Orbit data source: Space-Track

FENGYUN 1C DEB, 29770 is space debris in SSO originally from a launch on Mon, 10 May 1999 UTC launched from the Taiyaun Space Center, China (TSC). Fengyun 1C debris stems from the Chinese weather satellite Fengyun-1C, which was intentionally destroyed by a Chinese anti-satellite missile in 2007. This event dramatically increased the amount of space debris, with thousands of trackable fragments posing hazards to satellites and human spaceflight. The Fengyun 1C debris cloud has become a focal point in discussions about space sustainability and the need for international regulations to prevent the creation of new debris.

Loading next visibility...
Identifier
29770, 1999-025BL
Orbit
SSO
Country
Flag of CNCN / PRC
Related business
Manufacturer
Unknown
Mission
Spacecraft
Bus & Motor
Unknown
Mass
Unknown
Launch date (UTC)
1999-05-10 (27 years ago)
Launch vehicle
Unknown
Launch site
Taiyaun Space Center, China (TSC)
Object type
Payload
Rocket body
Debris
Shape & HBR
Unknown shape, 0.1 m
Radar Cross Section
Small (<0.1 m²)

Expand to show TLE details & history
Last TLE update: 14 hours ago

TLE from 14 hours ago
0 FENGYUN 1C DEB
1 29770U 99025BL  26071.17645862  .00002701  00000-0  12486-2 0  9998
2 29770  98.8362 151.7465 0061062  17.7717  46.0951 14.20761377983561
Epoch: 2026-03-12T04:14Z
TLE epoch observation values (Epoch: 2026-03-12T04:14:06.024Z)
Latitude
63.08339°
Longitude
-99.34111°
Altitude
803.224 km
Speed
7.474 km/s
True Right ascension
08h 56m 03s
True Declination
62° 56' 43"
Sunlit
Object was in daylight at epoch
Visualization orbit readout
Latitude
Unknown
Longitude
Unknown
Altitude
Unknown
Speed
Unknown
Apparent Right ascension
Unknown
Apparent Declination
Unknown
Sunlit
N/A
Visualization observer readout
Local Sidereal Time
22:45:10
Azimuth
Unknown
Elevation
Unknown
Doppler factor
Unknown
Orbital elements
Apogee altitude
863.895 km
Perigee altitude
775.99 km
Semi-major axis
7,198.08 km
Eccentricity
0.00611
Inclination
98.8362°
RAAN
151.7465°
Arg. of periapsis
17.7717°
True anomaly
46.60192°
Mean anomaly
46.0951°
Eccentric anomaly
46.34824°
Mean motion
3.55401 °/min
Orbital period
101.29 mins
BSTAR
0.0012486
Loading maneuver chart data...
Computing Atmospheric mass density...

Documentation

Showing up to 5 results
|